Regional Weather Roundup
Issued by NWS Newport/Morehead, NC

Current Version | Previous Version | Graphics & Text | Print | Product List | Glossary Off
Versions: 1 2 3 4 5 6 7 8 9 10 11 12 13 14 15 16 17 18 19 20 21 22 23 24 25 26 27 28 29 30 31 32 33 34 35 36

000
ASUS42 KMHX 250522
RWRMHX
WEATHER ROUNDUP FOR EASTERN NORTH CAROLINA
NATIONAL WEATHER SERVICE NEWPORT/MOREHEAD CITY NC
100 AM EDT FRI APR 25 2014

NOTE: "FAIR" INDICATES FEW OR NO CLOUDS BELOW 12,000 FEET
WITH NO SIGNIFICANT WEATHER AND/OR OBSTRUCTIONS TO VISIBILITY

NCZ015>017-031-032-045>047-102-103-250600-
NORTH COAST

CITY           SKY/WX    TMP DP  RH WIND       PRES   REMARKS
EDENTON        PTCLDY    51  46  83 CALM      30.05S
ELIZABETH CITY PTCLDY    50  46  86 SE5       30.05S
KITTY HAWK     PTCLDY    49  41  74 SE5       30.05S
MANTEO         PTCLDY    48  45  87 CALM      30.06S

$$

NCZ045>047-081-094-103-104-250600-
CENTRAL COAST

CITY           SKY/WX    TMP DP  RH WIND       PRES   REMARKS
FRISCO         CLEAR     51  43  74 E3        30.06F
SWANQUARTER      N/A     61 N/A N/A S6        30.03S

$$

NCZ095-097-098-100-101-250600-
SOUTHERN COAST

CITY           SKY/WX    TMP DP  RH WIND       PRES   REMARKS
BEAUFORT       CLEAR     52  48  86 E3        30.05S
CEDAR ISLAND     N/A     55 N/A N/A S2        30.09S
JACKSONVILLE   PTCLDY    52  52 100 CALM      30.03F
NEWPORT          N/A     46  46 100 CALM        N/A
PINEY ISLAND   CLEAR     59  50  72 S5        30.05S
WILMINGTON     CLEAR     56  52  86 CALM      30.02S


$$

NCZ011>013-027>030-043-044-078>080-089-090>093-098-250600-
COASTAL PLAIN

CITY           SKY/WX    TMP DP  RH WIND       PRES   REMARKS
AHOSKIE        MOCLDY    49  39  69 S3        30.04S
CLINTON        CLEAR     52  47  83 CALM      30.02F
ELIZABETHTOWN  CLEAR     56  48  74 CALM      30.01F
GOLDSBORO      CLEAR     52  47  82 E5        30.01F
GREENVILLE     CLEAR     52  45  76 CALM      30.05F
HAVELOCK       CLEAR     50  45  83 E3        30.06S
KENANSVILLE    PTCLDY    47  45  91 CALM      30.04S
KINSTON        CLEAR     52  45  78 S3        30.04F
NEW BERN       CLEAR     49  44  83 CALM      30.06S
RICHLANDS      PTCLDY    48  48 100 CALM      30.03F
ROANOKE RAPIDS NOT AVBL
ROCKY MOUNT    CLEAR     52  43  71 S3        30.02F
WASHINGTON     CLEAR     53  47  82 CALM      30.05S
WHITEVILLE     CLEAR     57  51  81 CALM      30.00F

$$

AMZ130-135-150-152-154-156-158-170-250-252-270-ANZ085-086-088-633-658-670-250600-
MARINE OBSERVATIONS

STATION/POSITION TIME  TEMP    WIND        PRES    WAVE   SWELL
                       AIR SEA DIR/SP/G            HT/PER HT/PER
                 (UTC) (F)     (DEG/KT/KT) (MB)    (FT/S) (FT/S)
CHESAPEAKE LIGHT 0500   53     200/ 14/ 14 1018.1
BUOY 44014       0500   50 49  250/  6/  6 1017.5    2/ 6   2/ 6
DUCK             0500   53 52  150/  8/  9 1016.7
2E DUCK          0500      53                N/A     2/ 7
OREGON INLET     0500   51 56  120/  5/  5 1017.8
BUOY 44095       0500      50                N/A     3/ 7
HATTERAS CG      0500   61 63  170/  2/  3 1017.9
DIAMOND BUOY     NOT AVBL
CAPE LOOKOUT     0500   62     100/  5/  5 1017.3
BEAUFORT LAB     0500   59 63  110/  2/  4 1016.7
30 SE NEW RIVER  0500   68 68  140/ 10/ 10 1017.4    3/ 9   3/ 9
5 SE WRIGHTSVILL 0400   62 60  120/  6/  6 1016.7
FRYING PAN BUOY  0500   70 68  160/ 10/ 12 1016.1    4/ 8   3/ 8
BUOY 41001       NOT AVBL
BUOY 41002       NOT AVBL
BUOY 41004       0500   72 71  130/  6/  6 1014.8    4/ 6   3/ 6

$$



USA.gov is the U.S. government's official web portal to all federal, state and local government web resources and services.